Location: Arboyeti
(42.1122°N, 44.6017°E)
Time: 04:13:35
(UTC+00:00)

SL-4 R/B - Pass Details

Date: 19 April 2021
Orbit: 427 x 663 km, 51.6° (Epoch: 09 May)

Event Time Altitude Azimuth Distance (km) Brightness Sun altitude
Exits shadow 23:35:31 15° 313° (NW) 1,758 4.6 -25.7°
Maximum altitude 23:39:21 52° 27° (NNE) 825 3.1 -25.2°
Drops below altitude 10° 23:44:01 10° 104° (ESE) 2,058 5.3 -24.6°
Sets 23:46:23 0° 109° (ESE) 2,947 6.1 -24.3°
